Weather History for Plainview, TX

Change the Weather History Date:

Saturday, March 29, 2014

  Actual Average Record
Temperature  
Mean Temperature 51 °F -  
Max Temperature 70 °F 66 °F 90 °F (1963)
Min Temperature 32 °F 39 °F 15 °F (1944)
Degree Days  
Heating Degree Days 14    
Growing Degree Days 1 (Base 50)    
Moisture  
Dew Point 25 °F    
Average Humidity 42    
Maximum Humidity 82    
Minimum Humidity 14    
Precipitation  
Precipitation 0.00 in - - ()
Sea Level Pressure  
Sea Level Pressure 30.23 in    
Wind  
Wind Speed 6 mph (South)    
Max Wind Speed 18 mph    
Max Gust Speed 25 mph    
Visibility 10 miles    
Events      
Averages and records for this station are not official NWS values.
T = Trace of Precipitation, MM = Missing Value Source: NWS Daily Summary

Daily Weather History Graph

Daily Weather History Graph

Search for Another Location

Airport:

Trip Planner

Search our weather history database for the weather conditions in past years. The results will help you decide how hot, cold, wet, or windy it might be!

Date:

Astronomy

Mar. 29, 2014 Rise Set
Actual Time 7:38 AM CDT 8:05 PM CDT
Civil Twilight 7:13 AM CDT 8:30 PM CDT
Nautical Twilight 6:43 AM CDT 9:00 PM CDT
Astronomical Twilight 6:13 AM CDT 9:30 PM CDT
Moon 6:45 AM CDT (3/29) 7:14 PM CDT (3/29)
Length of Visible Light 13h 17m
Length of Day
12h 27m
Waning Crescent, 2% of the Moon is Illuminated
Mar 29
Waning Crescent
Mar 30
New
Apr 7
First Quarter
Apr 15
Full
Apr 22
Last Quarter

Hourly Weather History & Observations

Time (CDT) Temp. Windchill Dew Point Humidity Pressure Visibility Wind Dir Wind Speed Gust Speed Precip Events Conditions
12:15 AM 44.8 °F 41.6 °F 30.0 °F 56% 30.17 in 10.0 mi ENE 5.8 mph - N/A   Clear
12:35 AM 43.5 °F 40.9 °F 29.7 °F 58% 30.18 in 10.0 mi ENE 4.6 mph - N/A   Clear
12:55 AM 42.3 °F 39.4 °F 28.9 °F 59% 30.19 in 10.0 mi ENE 4.6 mph - N/A   Clear
1:15 AM 42.4 °F 39.6 °F 28.8 °F 58% 30.20 in 10.0 mi ENE 4.6 mph - N/A   Clear
1:35 AM 42.6 °F 39.9 °F 28.4 °F 57% 30.20 in 10.0 mi ENE 4.6 mph - N/A   Clear
1:55 AM 41.2 °F 38.2 °F 28.4 °F 60% 30.20 in 10.0 mi ENE 4.6 mph - N/A   Clear
2:15 AM 39.7 °F 36.5 °F 28.4 °F 64% 30.21 in 10.0 mi East 4.6 mph - N/A   Clear
2:35 AM 39.7 °F 35.6 °F 28.2 °F 63% 30.21 in 10.0 mi ENE 5.8 mph - N/A   Clear
2:55 AM 39.7 °F 36.5 °F 28.4 °F 64% 30.21 in 10.0 mi ENE 4.6 mph - N/A   Clear
3:15 AM 39.7 °F 37.6 °F 28.8 °F 65% 30.22 in 10.0 mi East 3.5 mph - N/A   Clear
3:35 AM 40.1 °F - 28.0 °F 62% 30.22 in 10.0 mi Calm Calm - N/A   Clear
3:55 AM 38.7 °F - 28.8 °F 68% 30.24 in 10.0 mi Calm Calm - N/A   Clear
4:15 AM 39.0 °F - 27.5 °F 63% 30.24 in 10.0 mi Calm Calm - N/A   Clear
4:35 AM 36.0 °F - 26.6 °F 69% 30.24 in 10.0 mi Calm Calm - N/A   Clear
4:55 AM 33.6 °F - 26.8 °F 76% 30.24 in 10.0 mi Calm Calm - N/A   Clear
5:15 AM 34.7 °F - 28.0 °F 77% 30.24 in 10.0 mi Calm Calm - N/A   Clear
5:35 AM 34.7 °F 30.6 °F 28.2 °F 77% 30.24 in 10.0 mi NNW 4.6 mph - N/A   Clear
5:55 AM 34.7 °F 31.8 °F 28.6 °F 78% 30.25 in 10.0 mi NW 3.5 mph - N/A   Clear
6:15 AM 33.1 °F 28.7 °F 27.3 °F 79% 30.26 in 10.0 mi NNW 4.6 mph - N/A   Clear
6:35 AM 32.2 °F 28.9 °F 27.1 °F 82% 30.26 in 10.0 mi North 3.5 mph - N/A   Clear
6:55 AM 32.4 °F 29.1 °F 26.8 °F 80% 30.27 in 10.0 mi NNW 3.5 mph - N/A   Clear
7:15 AM 32.0 °F 28.7 °F 25.3 °F 76% 30.27 in 10.0 mi WNW 3.5 mph - N/A   Clear
7:35 AM 32.2 °F - 25.9 °F 78% 30.28 in 10.0 mi Calm Calm - N/A   Clear
7:55 AM 32.2 °F - 25.9 °F 78% 30.28 in 10.0 mi Calm Calm - N/A   Clear
8:15 AM 34.0 °F - 28.2 °F 79% 30.29 in 10.0 mi Calm Calm - N/A   Clear
8:35 AM 35.1 °F - 28.4 °F 77% 30.30 in 10.0 mi Calm Calm - N/A   Clear
8:55 AM 39.7 °F - 30.9 °F 71% 30.31 in 10.0 mi Calm Calm - N/A   Clear
9:15 AM 42.8 °F - 30.6 °F 62% 30.31 in 10.0 mi Calm Calm - N/A   Clear
9:35 AM 47.3 °F - 31.6 °F 55% 30.32 in 10.0 mi Calm Calm - N/A   Clear
9:55 AM 50.0 °F - 32.0 °F 50% 30.33 in 10.0 mi South 3.5 mph - N/A   Clear
10:15 AM 52.0 °F - 30.9 °F 45% 30.33 in 10.0 mi South 5.8 mph - N/A   Clear
10:35 AM 54.9 °F - 32.0 °F 42% 30.34 in 10.0 mi South 6.9 mph - N/A   Clear
10:55 AM 54.9 °F - 30.2 °F 39% 30.34 in 10.0 mi South 5.8 mph - N/A   Clear
11:15 AM 56.3 °F - 29.1 °F 35% 30.34 in 10.0 mi South 9.2 mph - N/A   Clear
11:35 AM 57.4 °F - 27.0 °F 31% 30.34 in 10.0 mi SSE 9.2 mph 16.1 mph N/A   Clear
11:55 AM 59.9 °F - 27.5 °F 29% 30.34 in 10.0 mi SSE 9.2 mph 18.4 mph N/A   Clear
12:15 PM 59.9 °F - 25.3 °F 27% 30.34 in 10.0 mi South 12.7 mph 16.1 mph N/A   Clear
12:35 PM 60.4 °F - 24.3 °F 25% 30.33 in 10.0 mi South 13.8 mph 17.3 mph N/A   Clear
12:55 PM 62.1 °F - 23.0 °F 22% 30.33 in 10.0 mi South 10.4 mph 17.3 mph N/A   Clear
1:15 PM 62.6 °F - 22.3 °F 21% 30.31 in 10.0 mi South 12.7 mph 18.4 mph N/A   Clear
1:35 PM 63.0 °F - 23.0 °F 22% 30.30 in 10.0 mi South 12.7 mph 19.6 mph N/A   Clear
1:55 PM 63.7 °F - 21.7 °F 20% 30.29 in 10.0 mi SSW 11.5 mph 23.0 mph N/A   Clear
2:15 PM 64.9 °F - 19.2 °F 17% 30.27 in 10.0 mi South 15.0 mph 20.7 mph N/A   Clear
2:35 PM 66.0 °F - 20.1 °F 17% 30.26 in 10.0 mi South 9.2 mph 21.9 mph N/A   Clear
2:55 PM 67.5 °F - 19.9 °F 16% 30.24 in 10.0 mi South 13.8 mph 21.9 mph N/A   Clear
3:15 PM 68.9 °F - 20.8 °F 16% 30.23 in 10.0 mi South 12.7 mph 23.0 mph N/A   Clear
3:35 PM 69.4 °F - 20.3 °F 16% 30.22 in 10.0 mi South 18.4 mph 24.2 mph N/A   Clear
3:55 PM 68.5 °F - 19.8 °F 16% 30.20 in 10.0 mi SSW 16.1 mph 21.9 mph N/A   Clear
4:15 PM 70.0 °F - 20.7 °F 15% 30.19 in 10.0 mi SSW 12.7 mph 23.0 mph N/A   Clear
4:35 PM 70.0 °F - 21.0 °F 16% 30.18 in 10.0 mi South 15.0 mph 24.2 mph N/A   Clear
4:55 PM 70.0 °F - 19.4 °F 15% 30.17 in 10.0 mi South 15.0 mph 21.9 mph N/A   Clear
5:15 PM 70.0 °F - 18.7 °F 14% 30.15 in 10.0 mi South 16.1 mph 20.7 mph N/A   Clear
5:35 PM 70.0 °F - 18.0 °F 14% 30.15 in 10.0 mi SSW 17.3 mph 25.3 mph N/A   Clear
5:55 PM 70.0 °F - 18.0 °F 14% 30.14 in 10.0 mi South 13.8 mph 24.2 mph N/A   Clear
6:15 PM 70.0 °F - 18.1 °F 14% 30.13 in 10.0 mi South 12.7 mph 21.9 mph N/A   Clear
6:35 PM 70.0 °F - 18.7 °F 14% 30.13 in 10.0 mi South 16.1 mph - N/A   Clear
6:55 PM 70.0 °F - 19.4 °F 15% 30.13 in 10.0 mi South 18.4 mph - N/A   Clear
7:15 PM 68.9 °F - 19.4 °F 15% 30.13 in 10.0 mi South 11.5 mph 19.6 mph N/A   Clear
7:35 PM 67.1 °F - 19.2 °F 16% 30.13 in 10.0 mi South 13.8 mph - N/A   Clear
7:55 PM 63.3 °F - 18.5 °F 18% 30.13 in 10.0 mi South 11.5 mph - N/A   Clear
8:15 PM 61.3 °F - 19.6 °F 20% 30.13 in 10.0 mi South 10.4 mph - N/A   Clear
8:35 PM 59.9 °F - 21.7 °F 23% 30.13 in 10.0 mi South 9.2 mph - N/A   Clear
8:55 PM 57.4 °F - 23.2 °F 27% 30.13 in 10.0 mi South 8.1 mph - N/A   Clear
9:15 PM 54.9 °F - 23.4 °F 30% 30.13 in 10.0 mi South 9.2 mph - N/A   Clear
9:35 PM 54.9 °F - 22.5 °F 28% 30.13 in 10.0 mi South 10.4 mph - N/A   Clear
9:55 PM 54.9 °F - 22.1 °F 28% 30.15 in 10.0 mi South 10.4 mph - N/A   Clear
10:15 PM 54.9 °F - 21.9 °F 28% 30.15 in 10.0 mi South 10.4 mph - N/A   Clear
10:35 PM 50.4 °F - 21.9 °F 33% 30.15 in 10.0 mi South 9.2 mph - N/A   Clear
10:55 PM 50.0 °F - 20.8 °F 32% 30.16 in 10.0 mi South 9.2 mph - N/A   Clear
11:15 PM 50.0 °F - 20.8 °F 32% 30.16 in 10.0 mi South 9.2 mph - N/A   Clear
11:35 PM 51.3 °F - 20.7 °F 30% 30.15 in 10.0 mi South 11.5 mph - N/A   Clear
11:55 PM 52.3 °F - 20.5 °F 29% 30.15 in 10.0 mi South 11.5 mph - N/A   Clear